This is the latest recevied weather packets stored in our database for station/object DH4SBM. If no packets are shown the sender has not sent any weather packets the latest 10 day(s).
| Time | Temp. | Humidity | Pressure | Rain* | Wind** | Luminosity | Snow |
|---|---|---|---|---|---|---|---|
| 1788004952 | 25.56° C | 48% | 1016.4 hPa | 0 mm | - | 262 W/m² | - |
| 1788004352 | 25.56° C | 48% | 1016.4 hPa | 0 mm | - | 788 W/m² | - |
| 1788003752 | 25° C | 51% | 1016.4 hPa | 0 mm | - | 780 W/m² | - |
| 1788003151 | 25° C | 52% | 1016.5 hPa | 0 mm | - | 784 W/m² | - |
| 1788002551 | 24.44° C | 52% | 1016.8 hPa | 0 mm | - | 631 W/m² | - |
| 1788001951 | 24.44° C | 54% | 1016.8 hPa | 0 mm | - | 721 W/m² | - |
| 1788001353 | 23.89° C | 54% | 1017.1 hPa | 0 mm | - | 793 W/m² | - |
| 1788000753 | 23.89° C | 55% | 1017.2 hPa | 0 mm | - | 798 W/m² | - |
| 1788000153 | 23.89° C | 55% | 1017.5 hPa | 0 mm | - | 111 W/m² | - |
| 1787999552 | 23.89° C | 56% | 1017.5 hPa | 0 mm | - | 763 W/m² | - |
| 1787998952 | 23.33° C | 57% | 1017.5 hPa | 0 mm | - | 733 W/m² | - |
| 1787998352 | 22.78° C | 58% | 1017.4 hPa | 0 mm | - | 721 W/m² | - |
| 1787997753 | 22.78° C | 59% | 1017.7 hPa | 0 mm | - | 714 W/m² | - |
| 1787997153 | 22.22° C | 61% | 1017.9 hPa | 0 mm | - | 712 W/m² | - |
| 1787995952 | 21.67° C | 63% | 1018.1 hPa | 0 mm | - | 756 W/m² | - |
| 1787995353 | 21.67° C | 65% | 1018.1 hPa | 0 mm | - | 128 W/m² | - |
| 1787994752 | 21.67° C | 67% | 1018 hPa | 0 mm | - | 668 W/m² | - |
| 1787994152 | 21.11° C | 67% | 1018.1 hPa | 0 mm | - | 636 W/m² | - |
| 1787993552 | 20.56° C | 68% | 1018.2 hPa | 0 mm | - | 638 W/m² | - |
| 1787992952 | 20.56° C | 69% | 1018.1 hPa | 0 mm | - | 584 W/m² | - |
| 1787992351 | 20.56° C | 70% | 1018.1 hPa | 0 mm | - | 563 W/m² | - |
| 1787991751 | 20° C | 71% | 1018 hPa | 0 mm | - | 543 W/m² | - |
| 1787991153 | 20° C | 71% | 1017.8 hPa | 0 mm | - | 522 W/m² | - |
| 1787990553 | 20° C | 73% | 1017.8 hPa | 0 mm | - | 499 W/m² | - |
| 1787989952 | 19.44° C | 72% | 1017.8 hPa | 0 mm | - | 478 W/m² | - |
* Rain latest hour (hover to see other rain measurements)
** Current wind speed in m/s (hover to see current wind gust speed)